[[{"header":{"parameterUnit":"m.s-1","parameterCategory":2,"la1":30.2992,"la2":30.254,"lo1":-89.0895,"lo2":-89.0443,"dy":0.0025,"dx":0.0025,"nx":19,"ny":19,"refTime":"2026-04-20T09:00:00:Z","depth":"0","parameterNumber":2,"parameterNumberName":"U-component_of_CURRENTS"},"data":[0,0,0,0.41,0.4103,0.4231,0.4231,0.4363,0.4365,0,0,0,0,0,0,0,0,0,0,0,0.4038,0.4039,0.41,0.4104,0.4231,0.4231,0.4363,0.4365,0,0,0,0,0,0,0,0,0,0,0,0.4038,0.4039,0.404,0.4104,0.4231,0.4231,0.4363,0.427,0,0,0,0,0,0,0,0,0,0,0.4148,0.4093,0.4039,0.404,0.4105,0.4231,0.4231,0.4265,0.4275,0.4303,0,0.4327,0,0.4367,0.4374,0.4375,0,0,0,0.4085,0.4084,0.4136,0.404,0.4107,0.423,0.4168,0.4271,0.4283,0.4316,0.433,0.4335,0.4369,0.4375,0.4376,0.4571,0.4572,0,0,0.4078,0.4045,0.4128,0.4143,0.4147,0.4164,0.4172,0.4278,0.4282,0.433,0.4339,0.4371,0.4376,0.4378,0.457,0.4572,0,0,0,0.407,0.404,0.4088,0.4137,0.4172,0.4168,0.4177,0.4277,0.4298,0.4341,0.4372,0.4377,0.4379,0.4569,0.4571,0.4611,0,0,0,0.4065,0.4038,0.4085,0.4065,0.4171,0.423,0.4173,0.429,0.4304,0.4372,0.4377,0.4381,0.4568,0.457,0.4607,0.4653,0,0,0,0.4031,0.4034,0.4054,0.4063,0.4131,0.4229,0.4255,0.4293,0.4325,0.4375,0.4381,0.4567,0.457,0.4604,0.4647,0.4751,0,0,0,0.3985,0.4014,0.4053,0.4103,0.4131,0.4247,0.4255,0.4337,0.4383,0.4378,0.4568,0.4571,0.4603,0.4643,0.4746,0.4646,0.4659,0,0,0.3996,0.4014,0.4048,0.4087,0.4187,0.4228,0.4339,0.4397,0.443,0.4525,0.453,0.4608,0.4646,0.475,0.4787,0.4796,0,0,0,0.4035,0.4058,0.4098,0.4164,0.4255,0.435,0.4409,0.447,0.4571,0.4475,0.4647,0.4672,0.4735,0.4665,0.4674,0.4634,0.4582,0.4582,0.4582,0.3992,0.4058,0.4123,0.4215,0.43,0.444,0.4532,0.4628,0.4628,0.4695,0.4731,0.4878,0.4804,0.4809,0.4769,0.4749,0.4749,0.4749,0.4749,0.4009,0.4037,0.4145,0.4227,0.435,0.4458,0.4661,0.4706,0.4877,0.4831,0.489,0.4744,0.482,0.4774,0.4752,0.4752,0.4751,0.4751,0.4751,0.3964,0.3982,0.405,0.4162,0.4308,0.4471,0.4649,0.4803,0.4937,0.5009,0.4967,0.4964,0.4904,0.5045,0.5046,0.5046,0.5047,0.5047,0.5048,0.3861,0.3936,0.397,0.4097,0.4168,0.434,0.4648,0.4787,0.4982,0.5044,0.5043,0.4954,0.497,0.4935,0.5058,0.5056,0.5055,0.5054,0.5053,0.3765,0.3798,0.3838,0.3888,0.4041,0.411,0.4445,0.4719,0.4922,0.4984,0.5022,0.5068,0.5061,0.5051,0.502,0.5159,0.5159,0.5159,0.5159,0.3667,0.3697,0.3715,0.375,0.3846,0.3997,0.4112,0.4407,0.478,0.4924,0.5047,0.4918,0.4916,0.4895,0.4889,0.4852,0.4946,0.4946,0.4946,0.3583,0.3613,0.3573,0.3629,0.3727,0.3835,0.3855,0.4007,0.4566,0.4939,0.5025,0.5034,0.4844,0.4843,0.4801,0.4796,0.4732,0,0]},{"header":{"parameterUnit":"m.s-1","parameterCategory":2,"la1":30.2992,"la2":30.254,"lo1":-89.0895,"lo2":-89.0443,"dy":0.0025,"dx":0.0025,"nx":19,"ny":19,"refTime":"2026-04-20T09:00:00:Z","depth":"0","parameterNumber":3,"parameterNumberName":"V-component_of_CURRENTS"},"data":[0,0,0,0.0034,0.0032,-0.0054,-0.0054,-0.0245,-0.0246,0,0,0,0,0,0,0,0,0,0,0,0.0068,0.0068,0.0034,0.0032,-0.0054,-0.0055,-0.0244,-0.0246,0,0,0,0,0,0,0,0,0,0,0,0.0068,0.0068,0.0068,0.0032,-0.0054,-0.0055,-0.0244,-0.0164,0,0,0,0,0,0,0,0,0,0,-0.0072,-0.0025,0.0068,0.0068,0.0032,-0.0054,-0.0055,-0.0159,-0.0169,-0.0222,0,-0.0218,0,-0.0232,-0.0259,-0.026,0,0,0,0.0013,-0.0017,-0.0034,0.0068,0.0031,-0.0053,-0.002,-0.0164,-0.0175,-0.0235,-0.022,-0.0227,-0.0236,-0.026,-0.0261,-0.0342,-0.0341,0,0,0.0018,0.0037,-0.0026,-0.004,0.0029,-0.0018,-0.0023,-0.017,-0.0178,-0.0221,-0.0232,-0.0239,-0.0262,-0.0263,-0.0342,-0.0342,0,0,0,0.0044,0.004,0.0028,-0.0033,-0.004,-0.002,-0.0026,-0.0172,-0.0173,-0.0234,-0.0241,-0.0263,-0.0265,-0.0343,-0.0342,-0.0146,0,0,0,0.0046,0.0057,0.0031,0.0039,-0.0036,-0.0097,-0.0024,-0.0163,-0.018,-0.024,-0.0263,-0.0267,-0.0343,-0.0342,-0.0152,-0.0037,0,0,0,0.0068,0.0059,0.0058,0.004,0.0012,-0.0094,-0.0105,-0.0167,-0.0184,-0.026,-0.0267,-0.0344,-0.0343,-0.0158,-0.0049,0.0105,0,0,0,0.0077,0.0116,0.0058,0.0095,0.0013,0.0011,-0.0104,-0.0134,-0.0184,-0.0264,-0.0343,-0.0342,-0.016,-0.0056,0.0097,0.0344,0.0402,0,0,0.0141,0.0123,0.0148,0.0096,0.0138,0.002,0.0047,-0.0074,-0.0188,-0.0306,-0.0308,-0.015,-0.005,0.0103,0.0418,0.0476,0,0,0,0.0179,0.0203,0.0203,0.0208,0.0173,0.017,0.004,-0.0018,-0.0104,-0.021,-0.0179,-0.0122,-0.0031,0.0098,0.0143,-0.0085,-0.0336,-0.0336,-0.0336,0.0298,0.0285,0.0339,0.0326,0.032,0.0256,0.0252,0.0144,-0.0008,-0.0013,0.0016,0.0238,0.0375,0.0412,0.0171,-0.0027,-0.0027,-0.0026,-0.0026,0.0426,0.047,0.0452,0.0507,0.0491,0.0504,0.043,0.0359,0.0341,0.0162,0.0241,0.027,0.0474,0.0199,-0.0014,-0.0016,-0.0017,-0.0018,-0.0019,0.0517,0.0542,0.0568,0.0651,0.0724,0.0689,0.0844,0.0716,0.0555,0.0615,0.0734,0.0733,0.0514,0.0645,0.0646,0.0647,0.0648,0.0649,0.065,0.0609,0.0635,0.0745,0.0813,0.0907,0.1041,0.1091,0.1158,0.1138,0.0995,0.0996,0.0577,0.0443,0.0443,0.0669,0.0665,0.0663,0.0661,0.066,0.0751,0.0759,0.0932,0.1039,0.1276,0.1553,0.1582,0.1795,0.1773,0.1812,0.1171,0.1201,0.1175,0.1137,0.1153,0.1549,0.1549,0.1549,0.1549,0.0858,0.0864,0.1134,0.1346,0.1615,0.1803,0.2278,0.2356,0.196,0.1669,0.1399,0.1242,0.1216,0.1175,0.1137,0.1143,0.1528,0.1527,0.1526,0.0985,0.1045,0.1273,0.1461,0.1769,0.2141,0.2615,0.2773,0.2062,0.1483,0.1032,0.1034,0.0742,0.072,0.0593,0.0558,0.0545,0,0]}],[{"header":{"parameterUnit":"m.s-1","parameterCategory":2,"la1":30.2992,"la2":30.254,"lo1":-89.0895,"lo2":-89.0443,"dy":0.0025,"dx":0.0025,"nx":19,"ny":19,"refTime":"2026-04-20T09:00:00:Z","depth":"2","parameterNumber":2,"parameterNumberName":"U-component_of_CURRENTS"},"data":[0,0,0,0.323,0.3233,0.337,0.337,0.3517,0.3518,0,0,0,0,0,0,0,0,0,0,0,0.3184,0.3185,0.3229,0.3233,0.337,0.337,0.3516,0.3518,0,0,0,0,0,0,0,0,0,0,0,0.3184,0.3185,0.3187,0.3233,0.337,0.337,0.3516,0.3419,0,0,0,0,0,0,0,0,0,0,0.3289,0.3267,0.3185,0.3187,0.3234,0.337,0.3371,0.3414,0.3425,0.3448,0,0.348,0,0.3504,0.3528,0.3528,0,0,0,0.3228,0.3259,0.3283,0.3187,0.3236,0.3369,0.3307,0.342,0.3432,0.3461,0.3482,0.3488,0.3507,0.3528,0.3529,0.3704,0.3705,0,0,0.3221,0.3221,0.3275,0.329,0.3286,0.3302,0.3311,0.3428,0.3454,0.3482,0.3491,0.3509,0.3529,0.3531,0.3703,0.3704,0,0,0,0.3202,0.3215,0.3237,0.3284,0.3313,0.3306,0.3316,0.3449,0.3453,0.3493,0.3511,0.353,0.3532,0.3702,0.3703,0.3767,0,0,0,0.3197,0.3205,0.3234,0.3237,0.3311,0.3391,0.3335,0.3444,0.3459,0.351,0.353,0.3533,0.3701,0.3703,0.3764,0.3799,0,0,0,0.3175,0.3203,0.3219,0.3236,0.3296,0.3389,0.3401,0.3448,0.347,0.3528,0.3534,0.3701,0.3703,0.376,0.3793,0.3845,0,0,0,0.3167,0.3194,0.322,0.3271,0.3295,0.339,0.34,0.3482,0.3535,0.3531,0.3701,0.3703,0.3759,0.379,0.3842,0.3754,0.3764,0,0,0.3184,0.3197,0.3225,0.325,0.3326,0.337,0.3481,0.355,0.3573,0.3658,0.3662,0.3765,0.3793,0.3845,0.387,0.3877,0,0,0,0.3219,0.3237,0.3272,0.3326,0.3396,0.3496,0.3559,0.362,0.3722,0.3616,0.3788,0.3804,0.3834,0.3774,0.3781,0.3713,0.3713,0.3712,0.3712,0.3189,0.3234,0.3295,0.337,0.3448,0.3584,0.3674,0.3766,0.3778,0.3846,0.3873,0.3981,0.3918,0.3922,0.3888,0.3888,0.3889,0.3889,0.3889,0.3176,0.32,0.3301,0.3374,0.3498,0.3603,0.3798,0.3851,0.3999,0.3982,0.4007,0.3866,0.3931,0.3895,0.3894,0.3893,0.3892,0.3892,0.3891,0.3113,0.3138,0.3205,0.3315,0.3465,0.3631,0.378,0.3946,0.4051,0.4105,0.4041,0.4038,0.4011,0.4125,0.4126,0.4126,0.4127,0.4127,0.4127,0.3005,0.3082,0.3122,0.3268,0.3344,0.3514,0.3803,0.3913,0.4076,0.4118,0.4117,0.406,0.4053,0.4025,0.4134,0.4132,0.4132,0.4131,0.4131,0.2911,0.2953,0.3002,0.3063,0.3229,0.3283,0.3588,0.3824,0.3996,0.4037,0.4115,0.4113,0.4085,0.4078,0.4051,0.416,0.416,0.416,0.416,0.2826,0.2856,0.2889,0.2939,0.3024,0.3174,0.3221,0.344,0.3758,0.3856,0.3868,0.3767,0.3774,0.3721,0.3722,0.3686,0.3699,0.3698,0.3697,0.2755,0.2793,0.2765,0.2839,0.2916,0.2988,0.295,0.298,0.3298,0.3672,0.3715,0.4143,0.4025,0.4024,0.3965,0.3958,0.3908,0,0]},{"header":{"parameterUnit":"m.s-1","parameterCategory":2,"la1":30.2992,"la2":30.254,"lo1":-89.0895,"lo2":-89.0443,"dy":0.0025,"dx":0.0025,"nx":19,"ny":19,"refTime":"2026-04-20T09:00:00:Z","depth":"2","parameterNumber":3,"parameterNumberName":"V-component_of_CURRENTS"},"data":[0,0,0,0.0183,0.0183,0.0114,0.0114,-0.0012,-0.0013,0,0,0,0,0,0,0,0,0,0,0,0.0206,0.0206,0.0183,0.0182,0.0114,0.0114,-0.0012,-0.0013,0,0,0,0,0,0,0,0,0,0,0,0.0206,0.0206,0.0206,0.0182,0.0115,0.0114,-0.0012,0.0045,0,0,0,0,0,0,0,0,0,0,0.0115,0.0141,0.0206,0.0206,0.0182,0.0115,0.0114,0.0048,0.0042,0.0013,0,0.0013,0,0.0004,-0.0021,-0.0021,0,0,0,0.0166,0.0147,0.0138,0.0206,0.0182,0.0115,0.014,0.0045,0.0037,0.0004,0.0012,0.0007,0.0002,-0.0022,-0.0022,-0.0042,-0.0042,0,0,0.0169,0.0179,0.0143,0.0134,0.0177,0.0143,0.0139,0.0041,0.0032,0.0011,0.0004,-0.0001,-0.0023,-0.0023,-0.0043,-0.0042,0,0,0,0.0192,0.0182,0.0175,0.0139,0.0133,0.0141,0.0136,0.0036,0.0037,0.0003,-0.0002,-0.0023,-0.0025,-0.0044,-0.0043,0.0103,0,0,0,0.0193,0.0196,0.0177,0.018,0.0136,0.0088,0.0134,0.0044,0.0033,-0.0001,-0.0023,-0.0026,-0.0044,-0.0043,0.0098,0.0185,0,0,0,0.0207,0.0197,0.0196,0.0181,0.0161,0.0089,0.0083,0.0041,0.003,-0.0021,-0.0026,-0.0045,-0.0043,0.0093,0.0176,0.0236,0,0,0,0.0209,0.0246,0.0196,0.0236,0.0162,0.018,0.0084,0.0069,0.0036,-0.0024,-0.0044,-0.0043,0.0091,0.017,0.023,0.0292,0.0324,0,0,0.0268,0.0252,0.0281,0.0237,0.0293,0.0187,0.0229,0.0133,0.0047,-0.002,-0.0021,0.01,0.0175,0.0235,0.0382,0.0411,0,0,0,0.031,0.0333,0.034,0.0355,0.0339,0.0335,0.0237,0.019,0.0129,0.0036,0.009,0.0133,0.0166,0.0191,0.0214,-0.0035,-0.0035,-0.0036,-0.0036,0.0408,0.0412,0.0473,0.0477,0.0481,0.0429,0.0415,0.0331,0.0223,0.0219,0.0245,0.0383,0.0411,0.0429,0.0221,0.0222,0.0222,0.0223,0.0223,0.0532,0.0577,0.058,0.0636,0.0626,0.0643,0.0578,0.0509,0.0478,0.0367,0.0391,0.0335,0.0464,0.0235,0.0232,0.0231,0.023,0.0229,0.0228,0.0603,0.063,0.0654,0.0743,0.0809,0.0784,0.0868,0.0768,0.0631,0.0659,0.0634,0.0631,0.0479,0.0653,0.0654,0.0655,0.0655,0.0656,0.0656,0.0665,0.0698,0.078,0.0864,0.0938,0.1035,0.1033,0.1025,0.093,0.0817,0.0816,0.0528,0.0514,0.0503,0.0667,0.0665,0.0663,0.0662,0.0662,0.0758,0.0767,0.0902,0.0984,0.1178,0.1352,0.1335,0.1328,0.1259,0.1227,0.0888,0.0879,0.0837,0.0816,0.0811,0.1045,0.1045,0.1045,0.1045,0.0818,0.0834,0.1021,0.1182,0.1379,0.1505,0.1677,0.1594,0.1355,0.1166,0.116,0.1077,0.106,0.1021,0.0996,0.099,0.1271,0.1272,0.1272,0.0891,0.0941,0.1088,0.1244,0.1473,0.1677,0.1836,0.1756,0.1394,0.1277,0.1165,0.1067,0.0924,0.0904,0.0819,0.0789,0.0768,0,0]}],[{"header":{"parameterUnit":"m.s-1","parameterCategory":2,"la1":30.2992,"la2":30.254,"lo1":-89.0895,"lo2":-89.0443,"dy":0.0025,"dx":0.0025,"nx":19,"ny":19,"refTime":"2026-04-20T09:00:00:Z","depth":"4","parameterNumber":2,"parameterNumberName":"U-component_of_CURRENTS"},"data":[0,0,0,0.198,0.1984,0.2196,0.2197,0.2377,0.2378,0,0,0,0,0,0,0,0,0,0,0,0.1923,0.1925,0.198,0.1985,0.2196,0.2197,0.2376,0.2378,0,0,0,0,0,0,0,0,0,0,0,0.1922,0.1924,0.1926,0.1986,0.2196,0.2197,0.2376,0.2241,0,0,0,0,0,0,0,0,0,0,0.2048,0.2007,0.1924,0.1926,0.1987,0.2196,0.2197,0.2236,0.225,0.2252,0,0.23,0,0.2332,0.2387,0.2388,0,0,0,0.1994,0.1996,0.2047,0.1927,0.1989,0.2195,0.2103,0.2244,0.226,0.227,0.2303,0.231,0.2334,0.2388,0.2389,0.2526,0.2527,0,0,0.1982,0.1963,0.2037,0.2057,0.2062,0.2097,0.211,0.2255,0.2279,0.2304,0.2315,0.2337,0.2389,0.239,0.2526,0.2527,0,0,0,0.1943,0.1955,0.2006,0.2049,0.2089,0.2102,0.2118,0.2274,0.229,0.2317,0.234,0.239,0.2391,0.2525,0.2526,0.2598,0,0,0,0.1936,0.1931,0.2,0.1991,0.2087,0.2196,0.2133,0.2281,0.2298,0.2339,0.239,0.2393,0.2525,0.2526,0.2595,0.2628,0,0,0,0.191,0.1928,0.1957,0.199,0.2075,0.2195,0.2221,0.2286,0.231,0.2388,0.2393,0.2525,0.2526,0.2592,0.2623,0.2721,0,0,0,0.1874,0.1914,0.1958,0.2014,0.2073,0.2184,0.2221,0.2326,0.2395,0.239,0.2525,0.2526,0.2591,0.262,0.2717,0.239,0,0,0,0.189,0.1916,0.1945,0.1988,0.2071,0.2154,0.2269,0.2381,0.2409,0.2471,0.2476,0.2596,0.2623,0.272,0.2461,0,0,0,0,0.1926,0.1949,0.1984,0.2051,0.2138,0.2259,0.2361,0.2419,0.2533,0.2455,0.2599,0.2614,0.2674,0.247,0.2532,0.2532,0.2532,0.2531,0.2531,0.1892,0.1943,0.2001,0.2088,0.218,0.2338,0.2445,0.2541,0.2562,0.2628,0.2676,0.28,0.2585,0.2676,0.2677,0.2677,0.2677,0.2678,0.2678,0.1886,0.1908,0.2015,0.2097,0.2235,0.2356,0.2548,0.2616,0.278,0.2745,0.2801,0.256,0.2685,0.2683,0.2682,0.2682,0.2681,0.2681,0.268,0.1829,0.1848,0.1931,0.2064,0.222,0.2401,0.2568,0.273,0.2845,0.2921,0.2746,0.2869,0.2864,0.2978,0.2979,0.2979,0.298,0.298,0.298,0.1729,0.1807,0.1875,0.2037,0.2135,0.2326,0.2612,0.2727,0.29,0.2801,0.2973,0.2902,0.2892,0.2882,0.299,0.2988,0.2987,0.2986,0.2985,0.1632,0.1695,0.177,0.1863,0.2063,0.2172,0.2485,0.2646,0.2763,0.2763,0.2738,0.2747,0.2702,0.2699,0.2679,0.2731,0.2727,0.2723,0,0.1553,0.1592,0.1673,0.1758,0.1865,0.2068,0.2163,0.2346,0.2512,0.2423,0.2752,0.2716,0.2722,0.2662,0.2653,0.2622,0,0,0,0.1487,0.153,0.1543,0.1649,0.1746,0.1922,0.217,0.217,0.2476,0.2502,0.2629,0.2654,0.2842,0.3017,0.2973,0.2961,0.2942,0,0]},{"header":{"parameterUnit":"m.s-1","parameterCategory":2,"la1":30.2992,"la2":30.254,"lo1":-89.0895,"lo2":-89.0443,"dy":0.0025,"dx":0.0025,"nx":19,"ny":19,"refTime":"2026-04-20T09:00:00:Z","depth":"4","parameterNumber":3,"parameterNumberName":"V-component_of_CURRENTS"},"data":[0,0,0,0.0233,0.0233,0.0198,0.0198,0.0128,0.0128,0,0,0,0,0,0,0,0,0,0,0,0.0245,0.0245,0.0233,0.0233,0.0198,0.0198,0.0128,0.0128,0,0,0,0,0,0,0,0,0,0,0,0.0245,0.0245,0.0245,0.0233,0.0198,0.0198,0.0128,0.0158,0,0,0,0,0,0,0,0,0,0,0.0194,0.021,0.0245,0.0245,0.0232,0.0198,0.0198,0.016,0.0156,0.014,0,0.0144,0,0.0138,0.0124,0.0123,0,0,0,0.0221,0.0213,0.0209,0.0245,0.0232,0.0198,0.021,0.0158,0.0154,0.0136,0.0143,0.014,0.0137,0.0123,0.0123,0.013,0.0131,0,0,0.0223,0.0231,0.0212,0.0207,0.0234,0.0212,0.0209,0.0156,0.0153,0.0143,0.0139,0.0136,0.0123,0.0122,0.013,0.0131,0,0,0,0.0236,0.0232,0.0229,0.0209,0.0208,0.0211,0.0208,0.0155,0.0156,0.0138,0.0135,0.0122,0.0122,0.0129,0.013,0.0221,0,0,0,0.0237,0.0241,0.023,0.0233,0.0209,0.0184,0.0209,0.0159,0.0153,0.0136,0.0122,0.0121,0.0129,0.013,0.0217,0.0275,0,0,0,0.0245,0.0241,0.0242,0.0234,0.0224,0.0185,0.0182,0.0158,0.0152,0.0123,0.0121,0.0128,0.013,0.0214,0.0268,0.0271,0,0,0,0.0247,0.0274,0.0242,0.0276,0.0225,0.0249,0.0182,0.0182,0.0166,0.0122,0.0129,0.013,0.0213,0.0264,0.0268,0.0292,0,0,0,0.0289,0.0279,0.0303,0.0275,0.0322,0.0252,0.0288,0.023,0.0178,0.0141,0.0141,0.0218,0.0268,0.0271,0.0368,0,0,0,0,0.0322,0.034,0.0349,0.0366,0.0363,0.0363,0.0304,0.0272,0.0238,0.0175,0.022,0.0248,0.0246,0.0251,0.0136,0.0136,0.0136,0.0136,0.0136,0.0383,0.0393,0.0443,0.0455,0.0467,0.0435,0.0424,0.0369,0.0306,0.0305,0.0322,0.0391,0.0402,0.0311,0.0312,0.0312,0.0313,0.0313,0.0313,0.0464,0.0498,0.0517,0.0568,0.0568,0.0589,0.054,0.0491,0.0458,0.0404,0.0397,0.0349,0.0322,0.032,0.0319,0.0318,0.0317,0.0317,0.0316,0.0504,0.0525,0.0559,0.0638,0.0698,0.0689,0.0729,0.0661,0.0555,0.0561,0.0517,0.0445,0.0434,0.0539,0.054,0.054,0.054,0.054,0.0541,0.0527,0.0566,0.0633,0.0717,0.0782,0.0849,0.0841,0.0806,0.0698,0.0637,0.0583,0.0467,0.046,0.0446,0.0545,0.0544,0.0544,0.0543,0.0543,0.0565,0.0588,0.069,0.0763,0.0915,0.0971,0.098,0.0892,0.0847,0.0761,0.065,0.0644,0.0605,0.0594,0.0583,0.0727,0.0728,0.0729,0,0.0584,0.0605,0.074,0.0861,0.0984,0.1039,0.1034,0.0981,0.0826,0.0817,0.08,0.0678,0.0671,0.0629,0.062,0.061,0,0,0,0.0609,0.0651,0.0743,0.0869,0.1012,0.1027,0.1031,0.0987,0.0873,0.0822,0.0746,0.0741,0.0663,0.0559,0.0483,0.0474,0.0448,0,0]}]]